Location: Collado de Prat de Estaso
(42.3884°N, 0.6951°E)
Time: 17:11:25
(UTC+00:00)

Daily predictions for brighter satellites

Satellite Brightness Start Highest point End
(mag) Time Altitude Azimuth Time Altitude Azimuth Time Altitude Azimuth
ATLAS CENTAUR R/B 1.4 17:37:57 10° NNW 17:41:51 49° NE 17:45:27 10° SE
CSL-04 Rocket 4.4 17:38:43 10° SE 17:43:29 31° ENE 17:48:18 10° N
Cosmos 1703 3.3 17:40:23 10° S 17:44:17 61° E 17:48:13 10° NNE
Cosmos 1953 Rocket 3.6 17:40:45 10° S 17:45:14 82° E 17:49:44 10° N
Cosmos 2341 Rocket 4.3 17:38:53 10° SSW 17:45:15 76° W 17:51:36 10° N
Cosmos 1455 2.1 17:43:57 10° N 17:47:46 82° E 17:51:31 10° S
Cosmos 1758 Rocket 4.5 17:44:57 10° SSW 17:49:08 51° W 17:53:22 10° N
Cosmos 2237 Rocket 4.1 17:45:16 10° NW 17:50:18 34° WSW 17:55:18 10° SSW
Cosmos 1842 Rocket 4.3 17:47:29 10° NNE 17:51:30 31° ENE 17:55:29 10° SE
COSMO-SKYMED 1 2.7 17:47:25 10° NNE 17:51:42 54° E 17:55:56 10° S
Cosmos 864 Rocket 4.4 17:47:40 10° S 17:53:44 70° E 17:59:51 10° NNE
SMAP 4.3 17:50:07 10° S 17:54:35 47° W 17:59:06 10° NNW
Cosmos 1339 Rocket 4.4 17:50:39 10° N 17:56:47 82° E 18:02:58 10° S
DELTA 2 R/B (1) 4.3 17:51:59 10° W 17:57:23 52° SSW 18:02:48 10° ESE
Shenzhou-11 Module 1.6 17:55:15 10° W 17:57:58 88° NNE 17:59:59 16° E
Meteor 2-10 Rocket 3.6 17:55:11 10° NNW 18:00:24 80° W 18:05:26 10° S
USA 234 3.3 17:54:58 10° ESE 18:01:28 71° NE 18:07:58 10° NW
Cosmos 1356 Rocket 3.4 18:00:37 10° N 18:04:39 59° ENE 18:08:44 10° SSE
Cosmos 2218 Rocket 4.1 17:59:23 10° S 18:05:45 86° W 18:12:12 10° N
Ariane Rocket 4.1 18:02:58 10° ESE 18:06:43 21° ENE 18:10:30 10° NNE
USA 116 3.8 18:05:45 11° NNE 18:08:24 34° E 18:11:18 10° SSE
ADEOS Rocket 4.0 18:02:48 10° NNE 18:09:05 34° E 18:15:47 10° SSE
CZ-2D R/B 3.8 18:06:45 10° SE 18:10:14 34° ENE 18:13:46 10° N
Cosmos 1869 4.3 18:13:46 10° NNE 18:17:01 24° ENE 18:18:29 19° ESE
SL-16 R/B 2.9 18:11:50 10° NNW 18:17:23 57° WSW 18:22:54 10° S
SL-8 R/B 4.5 18:12:57 10° WNW 18:17:32 41° N 18:20:30 19° NE
Cosmos 2221 2.8 18:13:46 10° N 18:17:52 43° ENE 18:21:59 10° SSE
YAOGAN 6 3.4 18:14:24 10° S 18:17:59 54° W 18:21:34 10° NNW
Cosmos 44 Rocket 3.2 18:16:23 10° SSW 18:21:12 80° ESE 18:25:12 15° NE
USA 238 DEB 4.0 18:15:20 10° S 18:21:33 44° ESE 18:26:24 17° NE
Cosmos 1076 Rocket 4.2 18:17:51 10° SSE 18:21:38 30° E 18:24:11 17° NE
USA 238 4.0 18:15:28 10° S 18:21:40 43° ESE 18:26:28 17° NE
Cosmos 2227 4.3 18:16:07 10° S 18:21:42 55° ESE 18:27:07 11° NNE
Cosmos 1939 Rocket 2.9 18:19:33 10° SSE 18:23:22 50° ENE 18:27:15 10° N
BREEZE-M DEB (TANK) 3.4 18:23:22 10° W 18:25:26 31° NNW 18:26:22 23° NNE
Cosmos 2056 Rocket 4.1 18:22:15 10° SSE 18:26:57 34° E 18:29:44 21° NE
Cosmos 2297 Rocket 4.3 18:23:26 10° WSW 18:27:51 23° NW 18:32:18 10° N
Cosmos 1603 3.8 18:25:09 10° NNW 18:30:44 54° ENE 18:36:12 10° SE
Cosmos 2263 Rocket 2.3 18:26:28 10° S 18:31:48 50° ESE 18:35:48 18° NE
EP 3 4.1 18:32:22 10° SW 18:34:15 58° WSW 18:34:15 58° WSW
Haruka 4.5 18:32:29 10° SSW 18:35:09 20° SSE 18:37:23 15° SE
NOAA 11 4.2 18:35:58 10° SSE 18:41:28 88° W 18:46:59 10° NNW
Cosmos 2227 Rocket 4.5 18:37:28 10° W 18:41:34 20° NW 18:45:42 10° N
Cosmos 2058 3.1 18:39:31 10° SSE 18:43:27 44° E 18:43:58 41° ENE
Cosmos 1140 Rocket 3.9 18:41:29 10° N 18:46:26 40° ENE 18:47:38 35° E
OAO 3 Rocket 4.4 18:43:15 10° SW 18:47:14 28° S 18:48:40 24° SE
Meteor 1-27 4.4 18:41:59 10° NNW 18:47:33 75° W 18:53:07 10° S
ATLAS 5 CENTAUR R/B 4.2 18:43:07 10° NNW 18:48:16 47° NE 19:08:26 10° ESE
Atlas Centaur 2 3.8 18:47:58 10° SW 18:50:47 17° S 18:53:18 12° SSE
YAOGAN 1 3.2 18:47:02 10° S 18:51:17 57° W 18:55:33 10° NNW
DMSP B5D1-3 4.5 18:50:51 10° NNE 18:55:58 85° WNW 19:01:04 10° SSW
Cosmos 1943 3.1 18:53:32 10° NNW 18:59:11 70° ENE 19:03:00 21° SE
H-2A R/B 3.1 19:04:42 27° NNE 19:04:42 27° NNE 19:07:28 10° N
ATLAS 3B R/B 3.7 19:00:33 10° SSE 19:04:32 25° SE 19:04:32 25° SE
CZ-4 R/B 3.6 19:03:53 10° SSW 19:07:25 28° W 19:11:02 10° NW
ISS -1.3 19:05:08 10° NW 19:06:38 16° NNW 19:06:38 16° NNW
USA 267 4.4 19:06:36 19° NNE 19:10:23 33° NNW 19:16:06 10° W
NOSS 3-2 (C) 3.4 19:08:45 10° SSW 19:14:15 55° ESE 19:14:42 54° E
SJ-11-01 4.1 19:19:15 80° NE 19:19:15 80° NE 19:23:52 10° N
ATLAS CENTAUR R/B 4.3 19:18:19 10° WNW 19:20:14 13° WSW 19:22:06 10° SW
Timation 1 Rocket 4.5 19:14:58 10° SSW 19:20:55 72° WNW 19:24:16 28° NNE
CENTAUR R/B 2.7 19:15:52 10° S 19:20:42 47° SE 19:20:42 47° SE
Cosmos 1371 Rocket 4.4 19:20:49 10° SSW 19:25:55 60° WNW 19:28:27 29° N
Cosmos 407 Rocket 3.8 19:21:23 10° NNW 19:26:37 64° WSW 19:30:26 18° S
Cosmos 1190 Rocket 4.2 19:23:14 10° NNW 19:28:34 73° WSW 19:30:51 34° S
NOSS 3-2 (A) 3.4 19:25:11 10° SW 19:30:53 75° NW 19:32:40 48° NNE
Ariane Rocket 3.8 19:40:24 10° S 19:45:18 50° W 19:50:16 10° NNW
MOS 1 4.4 19:45:38 58° SSW 19:46:42 74° WSW 19:52:25 10° NNW
Cosmos 1605 Rocket 3.9 19:42:43 10° S 19:49:04 88° W 19:49:16 85° NNW
ADEOS Rocket 4.2 19:48:02 10° N 19:54:38 50° WNW 20:01:47 10° SW
Cosmos 2263 Rocket 4.0 20:11:24 10° WSW 20:16:00 26° NW 20:17:34 23° NNW
ATLAS 3B R/B 4.5 20:49:44 10° SW 20:51:52 21° SW 20:51:52 21° SW
